Погода в Витебске

Поиск расширенной информации на нашем сайте:

Полезная информация:

Новости сайта



02.01.2020
Опубликован Долгосрочный прогноз погоды по городам России и ближнего зарубежья на январь 2020 года.
Карты: Прогноз на январь и февраль 2020 года, Сравнение прогнозируемой аномалии приземной температуры воздуха на январь 2020 года по разным моделям.




Погода в Витебске - сегодня

Время (UTC), дата Ветер
(°,м/с) 
Видим.   Явления Облачность Т
(°С)
Тd
(°С)
f(%) Тe
(°С)
Pmin
(гПа)
dP
(гПа)
Po
(мм)
O2
(г/м3)
Тmin Tmax R s Состояние
почвы
12 19.10.20 250 (З) 3-10{13}  30000 м  {ливн. осадки}  6/4 600 м средняя 
[Sc|Ac trans]
+7.3 -0.4 58 +7  1011.8  0.4  743  292      0.0     
15 19.10.20 230 (ЮЗ) 5-12{12}  35000 м  {ливн. осадки}  8/5 1000 м средняя 
[Sc|Ac trans]
+6.9 -1.5 55 +5  1011.8  -0.1  743  292      0.5     
18 19.10.20 270 (З) 2{12}  9000 м  слаб. ливневой дождь  10/10 700 м кучево-дожд. 
[Cb cap]
+4.4 +1.4 81 +4  1013.6  1.6  744  295    +8.4  0.8     
21 19.10.20 240 (ЮЗ) 4{10}  35000 м  {ливн. осадки}  9/9 1260 м 
[Sc]
+4.2 +1.4 82 +2  1014.1  0.5  744  295      0.0     
00 20.10.20 240 (ЮЗ) 4{10}  35000 м  {ливн. осадки}  4/4 1000 м 
[Sc]
+2.9 +1.4 90 +1  1014.9  0.6  745  297           
03 20.10.20 240 (ЮЗ) 4{11}  35000 м    9/9 1260 м 
[Sc]
+3.1 +1.5 89 +1  1015.2  0.3  745  297      0.0     
06 20.10.20 250 (З) 24000 м    8/8 1440 м 
[Sc]
+3.3 +1.2 86 +1  1016  0.8  746  297  +2.8    0.0     
09 20.10.20 310 (СЗ) 4{10}  9000 м  слаб. ливневой дождь  9/9 720 м кучево-дожд. 
[Cb cap]
+4.1 +0.2 76 +2  1018.6  2.7  748  297      0.0     
12 20.10.20 280 (З) 3{10}  35000 м  {ливн. осадки}  6/6 1000 м 
[Sc]
+7.1 -1.3 55 +6  1020.7  2.3  749  294      0.0     
15 20.10.20 280 (З) 24000 м    6/3 1000 м верхняя 
[Sc|Ci fib]
+3.7 -1.5 69 +5  1022.7  1.6  751  299      0.0     
18 20.10.20 240 (ЮЗ) 26000 м    6/0 верхняя 
[Ci fib]
+3.1 -1.1 74 +4  1023  0.3  751  299    +7.6  0.0     
21 20.10.20 230 (ЮЗ) 35000 м    ясно 
+2.8 -0.5 79 +2  1024.1  752  300           
00 21.10.20 240 (ЮЗ) 35000 м    8/0 верхняя 
[Ci fib]
+1.9 +0.1 88 +3  1023  -1.1  751  300           
03 21.10.20 170 (Ю) 29000 м    10/0 средняя, верхняя 
[Ac As|Cs]
+2.3 +0.7 89 +2  1021.5  -1.5  750  299           
06 21.10.20 170 (Ю) 6000 м  слаб. дождь  10/10 800 м 
[Ns]
+2.8 +1.9 94 +1  1019.6  -1.8  748  298  +1.7    0.4     
09 21.10.20 170 (Ю) 8000 м  слаб. дождь  10/10 210 м 
[Frnb|Ns]
+3.7 +3.1 96 +2  1017.1  -2.3  747  296         
12 21.10.20 180 (Ю) 18000 м  {дождь}  9/9 240 м 
[Sc]
+5.6 +4.2 91 +5  1015.4  -1.6  745  294      0.0     
15 21.10.20 190 (Ю) 17000 м    10/10 480 м 
[St]
+6.1 +4.7 91 +7  1015.4  0.1  745  293         
18 21.10.20 190 (Ю) 18000 м    10/10 450 м 
[St]
+6.2 +5 92 +7  1015.8  0.4  746  293    +6.2     
21 21.10.20 190 (Ю) 15000 м    9/9 500 м 
[Sc]
+6.2 +5.2 93 +7  1015.5  -0.3  746  293           
00 22.10.20 180 (Ю) 15000 м    10/10 420 м 
[St]
+5.9 +5.3 96 +6  1015.4  -0.1  745  293           
03 22.10.20 180 (Ю) 7000 м  дымка  10/10 120 м 
[St]
+5.9 +5.5 97 +6  1014.1  -1.3  744  293           
06 22.10.20 180 (Ю) 4100 м  слаб. дождь  10/10 120 м 
[Frnb|Ns]
+6.5 +6.2 98 +6  1012.1  -1.9  743  291  +5.7       
09 22.10.20 170 (Ю) 3{10}  14000 м  в посл. час ливневой дождь  9/9 240 м 
[St]
+8.1 +7.5 96 +7  1010  -1.9  742  289         
12 22.10.20 230 (ЮЗ) 4{10}  27000 м  {ливн. осадки, дождь}  3/0 средняя 
[Ac trans]
+12.9 +9.3 79 +13  1007  -2.6  740  283           
Время (UTC), дата Ветер
(°,м/с) 
Видим.   Явления Облачность Т
(°С)
Тd
(°С)
f(%) Тe
(°С)
Pmin
(гПа)
dP
(гПа)
Po
(мм)
O2
(г/м3)
Тmin Tmax R s Состояние
почвы

Для получения пояснительной информации подведите курсор к названию столбца.

ПОГОДА в Витебске - архив

Всё, что Вы хотите узнать о погоде в Витебске - удобно и подробно!

Выберите нужную дату (начиная с 1 января 2019* года) и нажмите кнопку "Найти".
Будут отображены архивные сводки погоды по пункту Витебск, начиная с указанной даты.


Отображать данные в формате CSV (для использования в таблицах Excel)


Внимание! Наш архив погоды предназначен исключительно для личного некоммерческого использования в познавательных целях. Если Вам необходимы официальные справки о состоянии погоды (для производственных, юридических, коммерческих и т.п. целей), обращайтесь в органы Росгидромета.

*Примечание: данная дата относится к архиву по метеостанциям СССР (Россия, СНГ, Балтия).
Архив по метеостанциям Зарубежной Европы и Азии (кроме Китая) хранится 10 дней, по другим регионам земного шара (Китай, Африка, Америка, Австралия, Океания) - 1 день.

Витебск - район местоположения метеостанции


Название, широта, долгота, высота метеостанции:
Витебск (город) 55.1°ш. 30.3°д. 170 м над ур. моря [Беларусь]

Дополнительная информация

В oтличие oт бoльшинства пoгoдных сайтoв мы публикуем пoдрoбную метеoинфoрмацию в детальнoм прoфессиoнальнoм фoрмате.

Характеристики температуры и влажнoсти вoздуха измеряются на высoте 2 м в тени вдали oт зданий и деревьев.
Скoрoсть ветра измеряется на высoте 10 м (на урoвне рoста челoвека скoрoсть ветра ниже в 1.5-2 раза). Если метеoстанция нахoдится в гoрoде или в лесу, тo скoрoсть ветра занижена на 2-4 м/с пo сравнению с oткрытым местoм. Скoрoсть ветра над акватoриями крупных рек и oзёр, а также на вершинах хoлмoв на 2-5 м/с выше, чем в oбычных услoвиях.
Атмoсфернoе давление в разных тoчках местнoсти мoжет значительнo oтличаться oт давления на метеoстанции, в зависимoсти oт услoвий рельефа (при пoдъёме на 10 м давление пoнижается примернo на 1 мм рт.ст.).